Regional Weather Roundup
Issued by NWS

Home | Current Version | Previous Version | Text Only | Print | Product List | Glossary Off
Versions: 1 2 3 4 5 6 7 8 9 10 11 12 13 14 15 16 17 18 19 20 21 22 23 24 25 26 27 28 29 30 31 32 33 34 35 36 37 38 39 40 41 42 43 44 45 46 47 48 49 50

000
ASUS43 KLSX 031959
RWRMO

WEATHER SUMMARY FOR MISSOURI
NATIONAL WEATHER SERVICE SPRINGFIELD MO
300 PM CDT FRI JUL 03 2015

NOTE: "FAIR" INDICATES FEW OR NO CLOUDS BELOW 12,000 FEET WITH NO
       SIGNIFICANT WEATHER AND/OR OBSTRUCTIONS TO VISIBILITY.
       CURRENT SKY AND/OR WEATHER CONDITIONS ARE NOT AVAILABLE FOR
       CHILLICOTHE AND FARMINGTON.

MOZ001>031-035>038-043-044-053-054-032100-
...NORTHERN AND WESTERN MISSOURI...

CITY           SKY/WX    TMP DP  RH WIND       PRES   REMARKS
KANSAS CTY INT SUNNY     77  57  50 NE8       29.97F
KANSAS C DTWN  SUNNY     81  60  48 N10       29.94F
LEE`S SUMMIT   SUNNY     79  60  52 N9        29.96F
ST JOSEPH      SUNNY     78  57  48 VRB5      29.96F
CHILLICOTHE      N/A     79  60  52 VRB6      29.97F
KIRKSVILLE     SUNNY     78  58  49 NE6       29.98F

$$
MOZ066>068-077>081-088>096-101>105-032100-
...SOUTHWEST MISSOURI...

CITY           SKY/WX    TMP DP  RH WIND       PRES   REMARKS
SPRINGFIELD    MOSUNNY   80  69  69 NE12      29.91F
JOPLIN         CLOUDY    73  70  90 E7        29.90F

$$
MOZ032>034-039>042-045>050-055>058-069>072-032100-
...CENTRAL MISSOURI...

CITY           SKY/WX    TMP DP  RH WIND       PRES   REMARKS
COLUMBIA       MOSUNNY   79  61  53 N9        29.94F
JEFFERSON CITY SUNNY     81  56  42 NW3       29.91F
ROLLA          MOSUNNY   79  61  53 N9        29.92F
SEDALIA        SUNNY     80  62  54 NE9       29.96S
OSAGE BEACH    PTSUNNY   77  64  65 N8        29.93F

$$
MOZ051-052-059>065-032100-
...EAST CENTRAL MISSOURI...

CITY           SKY/WX    TMP DP  RH WIND       PRES   REMARKS
ST LOUIS INTL  PTSUNNY   81  66  60 N10       29.91F
SPIRIT OF STL  PTSUNNY   81  66  60 N6        29.90F
ST CHARLES     MOSUNNY   80  67  64 NE8       29.90F

$$
MOZ072>076-082>087-097>100-106>115-032100-
...SOUTH CENTRAL AND SOUTHEAST MISSOURI...

CITY           SKY/WX    TMP DP  RH WIND       PRES   REMARKS
CAPE GIRARDEAU LGT RAIN  75  71  87 N6        29.88F
FARMINGTON     CLOUDY    77  64  65 E5        29.94F
POPLAR BLUFF   MOSUNNY   82  71  69 W6        29.87F
WEST PLAINS    PTSUNNY   75  70  84 SE6       29.93S

$$


USA.gov is the U.S. government's official web portal to all federal, state and local government web resources and services.